Alyeska Resort
Max's Hourly Weather Roundup
ALYESKA_MAX 7/28/2015
Click Here for Graph

        DATE  TIME   Air  Wind  Wind  Wind  BATT   Rel
                    Temp   Spd   Dir  Gust  Volt  Hum%
                      F   MPH   AVG   MPH   AVG   AVG

   7/28/2015 20:00    48     2   217     5 13.64   100
   7/28/2015 19:00    49     2   183     6 13.91   100
   7/28/2015 18:00    50     4   199     9 13.72   100
   7/28/2015 17:00    51     4   251    15 13.72   100
   7/28/2015 16:00    51     4   182     9 13.66   100
   7/28/2015 15:00    51     3   190     8 13.62   100
   7/28/2015 14:00    49     2   228    12 13.66   100
   7/28/2015 13:00    50     2   215     7 13.61   100
   7/28/2015 12:00    49     1   199     4 13.62   100
   7/28/2015 11:00    48     1   220     3 13.80   100
   7/28/2015 10:00    47     1   218     4 13.47   100
   7/28/2015 09:00    46     1   176     2 12.91   100
   7/28/2015 08:00    46     1   127     2 12.77   100
   7/28/2015 07:00    46     0   159     2 12.76   100
   7/28/2015 06:00    45     0   275     1 12.77   100
   7/28/2015 05:00    45     0   272     2 12.79   100
   7/28/2015 04:00    46     1   214     3 12.81   100
   7/28/2015 03:00    46     1   234     3 12.84   100
   7/28/2015 02:00    46     2   253     3 12.87   100
   7/28/2015 01:00    46     0   218     1 12.90   100
   7/27/2015 24:00    46     1   211     4 12.95   100
   7/27/2015 23:00    47     1   230     3 13.05   100
   7/27/2015 22:00    48     0   237     2 13.25   100
   7/27/2015 21:00    49     2   227     6 13.93   100


Click Here for Graph